Weather Roundup
Issued by NWS

Home | Current Version | Previous Version | Text Only | Print | Product List | Glossary On
Versions: 1 2 3 4 5 6 7 8 9 10 11 12 13 14 15 16 17 18 19 20 21 22 23 24 25 26 27 28 29 30 31 32 33 34 35 36 37 38 39 40 41 42 43 44 45 46 47 48 49 50
000
NZUS93 KARX 180510
HRRWXR

CURRENT HOURLY OBSERVATIONS ACROSS
MUCH OF THE UPPER MISSISSIPPI VALLEY
NATIONAL WEATHER SERVICE LA CROSSE WI
1200 AM CDT FRI APR 18 2014


...SOUTHEAST MINNESOTA...


CITY           SKY/WX    TMP DP  RH WIND       PRES   REMARKS
ROCHESTER      CLEAR     31  26  82 S3        30.30S
ROCHESTER/MAYO FAIR      33  26  77 CALM      30.31S
WINONA         CLEAR     34  30  86 CALM      30.34R
AUSTIN         CLEAR     28  28 100 CALM      30.31S
ALBERT LEA     FOG       28  28 100 CALM      30.31S VSB 3/4
DODGE CENTER   PTCLDY    34  30  86 S3        30.30S
PRESTON        CLEAR     32  28  83 CALM      30.31S
OWATONNA       CLEAR     30  27  86 CALM      30.31S FOG
FARIBAULT      CLEAR     32  27  80 CALM      30.31S
$$

...ELSEWHERE IN MINNESOTA...


CITY           SKY/WX    TMP DP  RH WIND       PRES   REMARKS
MINNEAPOLIS    CLEAR     34  26  72 CALM      30.32R
INTNL FALLS    CLEAR     22  19  89 CALM      30.30S
DULUTH         CLEAR     21  16  81 CALM      30.28S
RED WING       CLEAR     28  27  93 CALM      30.31S
REDWOOD FALLS  CLEAR     30  25  81 CALM      30.32R
MANKATO        CLEAR     32  25  74 CALM      30.32S
WORTHINGTON    MOCLDY    30  23  74 NE6       30.30S WCI  24
FAIRMONT       CLEAR     30  27  86 CALM      30.33R
$$

...SOUTHWEST WISCONSIN...


CITY           SKY/WX    TMP DP  RH WIND       PRES   REMARKS
LA CROSSE      CLOUDY    39  27  62 N6        30.32S WCI  35
PRAIRIE DU CHI CLEAR     32  28  86 CALM      30.31S
BOSCOBEL       CLEAR     32  28  85 CALM      30.31F
LONE ROCK      CLEAR     37  30  75 CALM      30.30F
PLATTEVILLE    CLEAR     35  31  86 N6        30.30S WCI  30
FORT MC COY    CLOUDY    37  29  71 N6        30.32S WCI  32
CAMP DOUGLAS   CLOUDY    36  30  78 NW6       30.30S WCI  32
VIROQUA        FAIR      34  29  83 N5        30.28S WCI  30
WIS DELLS      CLEAR     32  29  88 CALM      30.29S
$$

...ELSEWHERE IN WISCONSIN...


CITY           SKY/WX    TMP DP  RH WIND       PRES   REMARKS
MILWAUKEE      CLOUDY    45  36  70 N6        30.27R
MADISON        CLEAR     36  31  82 N5        30.29S WCI  32
GREEN BAY      CLOUDY    37  33  85 W6        30.28S WCI  32
EAU CLAIRE     CLEAR     27  25  92 CALM      30.31S
BLACK RVR FLS  CLOUDY    36  26  68 CALM      30.32R
MEDFORD        CLOUDY    32  24  73 N3        30.28F
WAUSAU         CLOUDY    34  26  72 NW6       30.27S WCI  29
WIS RAPIDS     CLOUDY    36  27  69 N7        30.31S WCI  30
MARSHFIELD     CLOUDY    34  26  72 N6        30.29S WCI  29
RICE LAKE        N/A     26  25  96 CALM      30.32S FOG
$$

...NORTHEAST IOWA...


CITY           SKY/WX    TMP DP  RH WIND       PRES   REMARKS
WATERLOO       CLEAR     30  27  88 CALM      30.31S
DUBUQUE        CLEAR     35  30  82 N12       30.28S WCI  27
DECORAH        MOCLDY    32  28  86 CALM      30.30S
MASON CITY     CLEAR     25  24  96 E5        30.32F FOG     WCI  19
CHARLES CITY   CLEAR     32  28  86 N3        30.32S
OELWEIN        PTCLDY   N/A N/A N/A N3        30.31F
$$

...ELSEWHERE IN IOWA...


CITY           SKY/WX    TMP DP  RH WIND       PRES   REMARKS
DES MOINES     CLEAR     43  31  62 E8        30.29S
IOWA CITY      CLEAR     40  33  76 N13       30.31S WCI  32
FORT DODGE     PTCLDY    30  27  86 E6        30.31R WCI  24
MARSHALLTOWN   CLEAR     31  28  89 NE7       30.30S WCI  24
CEDAR RAPIDS   CLEAR     32  27  81 N7        30.30R WCI  26
$$

...NORTHERN ILLINOIS...


CITY           SKY/WX    TMP DP  RH WIND       PRES   REMARKS
CHICAGO-OHARE  CLOUDY    49  37  63 E6        30.24S
DUPAGE         CLOUDY    46  38  73 W5        30.24S
CHICAGO-MIDWAY CLOUDY    53  39  59 W6        30.25S
MOLINE         PTCLDY    40  33  76 W3        30.28R
ROCKFORD       CLOUDY    45  36  70 NW9       30.28R
STERLING       MOCLDY    45  36  70 NW8       30.27R
PEORIA         CLOUDY    48  36  63 W3        30.28R
$$

NOTE: "FAIR" INDICATES FEW OR NO CLOUDS BELOW 12,000 FEET WITH NO
SIGNIFICANT WEATHER AND/OR OBSTRUCTIONS TO VISIBILITY. WIND
SPEEDS ARE IN MILES-PER-HOUR.



USA.gov is the U.S. government's official web portal to all federal, state and local government web resources and services.